DW6099 Weather Reports


Display with metric or nautical units.
time (UTC)temp
F
wind
direction
speed
MPH
gust
MPH
rain 1hr
in
rain 24hr
in
rain mn
in
humidity
%
barometer
mb
20260504000011 84 12 3.0 9.0 0.00 0.00 0.00 35 1002.4
20260503234510 84 5 2.0 8.0 0.00 0.00 0.00 36 1002.4
20260503233017 84 15 6.0 9.0 0.00 0.00 0.00 36 1002.4
20260503231508 83 10 5.0 7.0 0.00 0.00 0.00 44 1002.4
20260503230028 83 16 4.0 8.0 0.00 0.00 0.00 42 1002.4
20260503224506 83 21 5.0 9.0 0.00 0.00 0.00 43 1002.4
20260503223005 83 17 4.0 10.0 0.00 0.00 0.00 46 1002.4
20260503221504 82 15 5.0 8.0 0.00 0.00 0.00 45 1002.4
20260503220002 82 13 5.0 9.0 0.00 0.00 0.00 45 1002.4
20260503214559 82 20 5.0 7.0 0.00 0.00 0.00 52 1002.4
20260503213102 81 15 3.0 5.0 0.00 0.00 0.00 54 1002.4
20260503211559 81 15 0.0 3.0 0.00 0.00 0.00 62 1002.4
20260503210056 81 15 0.0 2.0 0.00 0.00 0.00 57 1002.4
20260503204616 80 18 0.0 5.0 0.00 0.00 0.00 59 1002.4
20260503203054 80 41 0.0 1.0 0.00 0.00 0.00 58 1002.4
20260503201551 80 115 0.0 3.0 0.00 0.00 0.00 57 1002.4
20260503200046 78 17 0.0 4.0 0.00 0.00 0.00 64 1002.4
20260503194546 77 16 0.0 3.0 0.00 0.00 0.00 63 1002.4
20260503193046 76 15 3.0 5.0 0.00 0.00 0.00 66 1002.4
20260503191604 75 16 2.0 5.0 0.00 0.00 0.00 67 1002.4
20260503190041 74 17 0.0 4.0 0.00 0.00 0.00 68 1002.4
20260503184537 74 21 0.0 6.0 0.00 0.00 0.00 66 1002.4
20260503183032 73 19 0.0 6.0 0.00 0.00 0.00 67 1002.4
20260503181545 72 77 0.0 2.0 0.00 0.00 0.00 71 1002.4
20260503180033 72 38 0.0 2.0 0.00 0.00 0.00 69 1002.4
20260503174534 73 138 0.0 3.0 0.00 0.00 0.00 67 1002.4
20260503173027 71 141 0.0 5.0 0.00 0.00 0.00 69 1002.4
20260503171524 69 170 0.0 0.0 0.00 0.00 0.00 73 1002.4
20260503081534 54 26 0.0 0.0 0.00 0.01 0.00 91 1002.4
20260503071520 55 24 0.0 0.0 0.00 0.01 0.00 88 1002.4
20260503054514 60 24 0.0 0.0 0.00 0.01 0.01 84 1002.4
20260503053015 60 24 0.0 0.0 0.00 0.01 0.01 83 1002.4
20260503051514 61 24 0.0 0.0 0.00 0.01 0.01 83 1002.4
20260503050013 61 24 0.0 0.0 0.00 0.01 0.01 84 1002.4
20260503044513 61 24 0.0 0.0 0.00 0.01 0.01 83 1002.4
20260503043013 61 25 0.0 0.0 0.00 0.01 0.01 83 1002.4
20260503041513 62 38 0.0 0.0 0.00 0.01 0.01 81 1002.4
20260503040012 62 139 0.0 1.0 0.00 0.01 0.01 82 1002.4
20260503034512 62 81 0.0 0.0 0.00 0.01 0.01 82 1002.4
20260503033011 62 80 0.0 5.0 0.00 0.01 0.01 82 1002.4
20260503031511 63 189 0.0 0.0 0.00 0.01 0.01 82 1002.4
20260503030009 63 189 0.0 0.0 0.00 0.01 0.01 78 1002.4
20260503024513 63 111 0.0 0.0 0.00 0.01 0.01 79 1002.4
20260503023009 63 17 0.0 6.0 0.00 0.01 0.01 80 1002.4
20260503021509 63 20 0.0 0.0 0.00 0.01 0.01 79 1002.4
20260503020008 64 19 2.0 4.0 0.00 0.01 0.01 77 1002.4
20260503014507 65 19 0.0 4.0 0.00 0.01 0.01 77 1002.4
20260503013012 66 33 0.0 4.0 0.00 0.01 0.01 73 1002.4
20260503011507 66 19 1.0 6.0 0.00 0.01 0.01 73 1002.4
20260503010007 67 24 0.0 4.0 0.00 0.01 0.01 72 1002.4
20260503004506 67 28 0.0 5.0 0.00 0.01 0.01 74 1002.4
20260503003008 67 15 0.0 1.0 0.00 0.01 0.01 70 1002.4
20260503001506 67 16 0.0 1.0 0.00 0.01 0.01 70 1002.4